Location: Caltech
(34.1382°N, 118.1253°W)
Time: 04:45:18
(UTC-07:00)

Oscar 10/S400 - Visible Passes

Search period start: 30 September 2016 00:00
Search period end: 10 October 2016 00:00
Orbit: 4046 x 35401 km, 26.8° (Epoch: 29 September)

Date Brightness Start Highest point End Pass type
(mag) Time Alt. Az. Time Alt. Az. Time Alt. Az.
30 Sep ? 05:53:28 10° SW 09:14:50 59° SW 16:21:56 10° SE visible
01 Oct ? 05:06:58 10° SW 09:00:44 66° SW 15:38:20 10° SE visible
02 Oct ? 04:21:35 10° SSW 09:05:23 72° SW 14:54:20 10° SE visible
03 Oct ? 03:37:08 10° SSW 09:36:24 77° SSW 14:09:54 10° ESE visible
04 Oct ? 02:53:34 10° SSW 11:00:54 81° S 13:24:57 10° ESE visible
05 Oct ? 02:11:01 10° S 10:04:07 78° SE 12:39:22 10° ESE visible
06 Oct ? 01:29:58 10° S 09:18:11 70° ESE 11:53:01 10° ESE visible
07 Oct ? 00:52:10 10° SSE 08:33:34 61° E 11:05:40 10° E visible
08 Oct ? 00:27:39 10° SE 07:49:38 52° E 10:16:59 10° E visible
09 Oct ? 00:54:45 10° E 07:06:15 43° E 09:26:24 10° E visible
